SCP
0 0 0 0 0 0 0 0 0 0 0 0 0 0 0 0 0 0 0 1 1 1 1 2 1 2 1 1 1 1 0 0 0 0 0 0 0 -0 -0 -0 -0 0 0
0 1 1 1 0 1 0 0 0 0 0 0 0 0 0 1 1 1 1 1 1 1 1 3 2 1 1 2 1 1 1 0 0 0 0 0 0 0 -0 -0 -0 -0 0
0 0 0 0 0 0 0 0 1 1 0 0 0 0 0 1 1 1 2 2 2 1 3 2 1 1 2 1 0 1 1 0 0 0 0 0 0 0 0 -0 -0 -0 0
1 1 0 0 0 1 1 0 0 0 0 0 0 1 1 1 1 2 2 2 2 4 2 1 2 0 -0 -0 0 0 1 1 0 0 0 0 0 0 0 0 -0 -0 -0
1 1 1 1 1 1 1 1 1 1 1 2 1 1 2 2 2 2 2 2 3 2 4 1 0 0 0 -0 0 0 0 0 0 0 0 0 0 0 0 0 0 0 -0
1 1 2 1 2 1 1 1 0 0 1 1 1 2 4 3 3 3 2 1 1 1 1 1 0 0 0 -0 0 0 0 0 0 0 0 0 0 0 0 0 0 0 0
1 2 2 2 1 2 2 1 1 2 1 1 2 2 2 2 3 2 2 2 1 1 1 0 0 0 0 0 0 0 0 0 0 0 0 0 0 0 0 0 0 0 0
2 2 2 2 2 2 2 1 3 2 1 1 2 2 2 1 2 2 0 0 0 1 1 2 2 0 0 0 0 0 0 0 0 0 0 0 0 0 0 0 0 0 0
1 2 3 3 2 2 2 1 1 1 0 0 1 1 1 0 0 2 1 1 0 1 1 0 2 1 0 0 0 0 0 0 0 1 1 0 0 0 0 0 0 0 0
4 3 1 3 3 1 2 1 0 0 0 1 2 1 1 2 1 1 1 1 1 1 0 0 0 1 1 0 1 1 1 0 1 1 1 0 0 0 0 0 0 0 0
4 2 1 1 1 1 1 0 0 1 1 1 1 1 2 3 2 2 1 1 0 0 0 0 0 0 1 1 0 0 0 1 1 1 1 1 0 0 0 0 0 0 0
3 2 3 3 2 2 2 2 2 3 2 3 3 3 4 4 3 2 2 1 1 0 0 1 0 0 0 1 1 0 0 0 0 1 1 0 0 0 0 0 0 0 0
1 1 1 1 0 0 0 0 0 1 2 3 3 3 3 2 3 2 2 1 1 1 1 1 1 1 1 0 1 0 0 0 0 0 0 0 0 0 0 0 0 0 0
0 0 0 0 0 0 0 0 0 0 0 1 0 0 1 1 2 2 1 1 1 1 1 1 1 1 1 1 0 0 0 0 0 0 0 0 0 0 0 0 0 0 0
0 0 0 0 0 0 0 0 0 0 0 0 0 0 0 0 0 0 0 1 1 0 0 0 1 1 1 0 0 0 0 -0 0 0 0 0 0 0 0 0 0 0 0
0 0 0 0 0 0 0 0 0 0 0 0 0 0 0 0 0 0 0 0 0 1 0 0 0 1 1 1 0 1 0 0 0 0 0 0 0 0 0 0 0 0 0
0 0 0 0 0 0 0 0 0 0 0 0 0 0 0 0 0 0 0 0 0 0 0 0 0 0 0 0 0 0 0 0 1 0 0 0 0 0 0 0 0 0 0
0 0 0 0 0 0 0 0 0 0 0 0 0 0 0 0 0 0 0 0 0 0 0 0 0 0 0 0 0 1 1 1 1 1 0 0 0 0 0 0 0 0 0
0 0 0 0 0 0 0 0 0 0 0 0 0 0 0 0 0 0 0 0 0 0 0 0 0 0 0 0 0 0 0 0 0 0 0 0 0 0 0 0 0 0 0
0 0 0 0 0 0 0 0 0 0 0 0 0 0 0 0 0 0 0 0 0 0 0 0 0 0 0 0 0 0 0 0 0 1 0 0 0 0 0 -0 0 0 0
0 0 0 0 0 0 0 0 0 0 0 0 0 0 0 0 0 0 0 0 0 0 0 0 0 0 0 0 0 0 0 0 0 0 0 0 0 0 0 0 0 0 0
0 0 0 0 0 0 0 0 0 0 0 0 0 0 0 0 0 0 0 0 0 0 0 0 0 0 0 0 0 0 -0 -0 0 0 0 0 0 0 0 0 0 0 0
0 0 0 0 0 0 0 0 0 0 0 0 0 0 0 0 0 0 0 0 0 0 0 0 0 0 0 0 0 0 0 0 -0 0 -0 0 0 0 0 0 0 0 0
0 0 0 0 0 0 0 0 0 0 0 0 0 0 0 0 0 0 0 0 0 0 0 0 0 0 0 0 0 0 0 0 0 0 0 -0 -0 -0 -0 -0 0 0 0
0 0 0 0 0 0 0 0 0 0 0 0 0 0 0 0 0 0 0 0 0 0 0 0 0 0 0 0 0 0 0 0 0 0 0 0 0 0 0 0 0 -0 0
0 0 0 0 0 0 0 0 -0 0 0 0 0 0 0 0 0 0 0 0 0 0 0 0 0 0 0 0 0 0 0 0 0 0 0 0 0 0 0 0 0 0 0
Wind_Speed_500mb
31 34 31 27 28 22 24 20 21 26 24 29 24 22 21 26 34 34 31 36 37 42 40 36 31 30 36 41 39 37 38 40 39 41 39 38 37 35 32 30 31 29 27
30 41 36 44 46 42 33 32 29 23 32 25 21 30 32 35 31 31 30 42 43 46 45 44 49 43 35 44 44 40 38 38 38 38 38 39 39 37 36 34 32 32 30
34 41 43 37 39 41 28 38 33 34 42 41 42 31 31 32 35 33 43 50 43 49 55 55 49 57 49 46 45 41 38 35 35 33 32 33 35 35 36 35 33 34 33
42 47 49 36 31 29 36 37 43 46 37 30 29 30 37 30 36 40 45 37 48 46 51 50 55 48 34 51 47 42 37 33 31 29 26 25 27 31 34 34 33 32 32
44 51 42 39 35 40 38 38 38 36 41 39 43 40 35 48 48 50 56 49 53 51 59 57 61 48 55 51 50 44 38 33 30 28 25 22 21 21 24 27 30 32 30
48 41 40 42 38 43 44 42 44 42 47 42 40 42 40 41 46 51 58 58 62 58 67 77 70 67 53 37 37 38 36 35 33 28 25 22 19 16 17 20 22 25 29
39 43 45 41 45 47 46 38 46 51 55 48 47 52 52 49 48 53 55 57 55 52 55 60 58 50 42 27 33 40 34 38 37 32 28 25 20 16 16 16 18 19 22
44 41 40 42 40 44 49 54 55 52 52 39 44 39 38 46 46 50 56 57 55 55 50 56 52 41 35 29 48 40 33 37 41 37 33 27 23 18 15 17 17 18 21
35 35 33 38 42 42 48 49 59 58 53 47 45 37 22 21 30 37 48 61 69 57 54 53 54 41 29 34 48 51 44 45 40 44 37 33 28 23 19 20 20 19 20
31 33 39 53 46 56 42 60 43 67 47 52 44 38 47 49 51 52 59 50 59 70 65 60 65 60 53 49 49 44 44 48 45 51 45 40 34 28 25 21 22 20 20
27 32 35 31 35 36 38 49 41 48 48 45 56 55 60 62 60 63 60 58 60 54 67 79 66 65 60 63 61 66 55 67 58 56 50 46 42 35 31 26 24 21 19
15 21 17 16 25 30 31 34 37 42 44 48 47 50 55 64 63 65 67 72 78 77 57 64 75 62 62 64 70 74 77 73 66 63 55 62 51 43 41 33 28 25 23
10 5 13 15 19 24 27 33 31 27 21 29 33 42 49 53 58 60 64 71 70 73 73 75 62 62 69 67 75 80 87 76 72 69 65 73 68 60 51 42 36 31 29
13 19 15 14 18 24 30 32 28 29 34 39 41 38 38 41 41 48 55 60 69 65 69 67 66 67 71 70 69 82 67 73 75 85 81 83 77 66 57 48 42 37 36
5 11 12 17 20 26 31 33 30 31 38 39 43 43 45 50 50 48 47 48 58 63 67 59 61 61 47 75 77 70 74 76 82 85 90 87 80 73 66 55 50 44 42
8 12 17 22 26 29 36 43 41 40 40 38 41 50 52 51 53 53 49 50 46 56 70 62 66 67 60 68 72 50 55 69 82 63 72 83 80 76 69 60 54 50 50
16 20 24 29 31 30 37 41 39 32 40 47 45 47 52 53 52 54 56 54 53 47 62 73 56 58 63 64 69 62 40 39 37 63 74 74 70 70 69 65 57 51 57
19 20 22 25 25 24 28 34 36 38 38 38 40 39 41 46 51 53 50 50 55 55 53 71 62 57 51 50 54 53 53 55 60 48 58 60 72 64 64 63 64 64 60
23 24 24 25 24 23 27 33 41 42 38 35 37 39 48 53 52 59 61 60 64 65 67 74 85 73 64 55 64 73 69 59 56 69 70 66 63 55 61 60 68 74 74
19 18 21 19 22 25 30 39 40 42 33 28 33 40 43 44 50 48 51 55 59 60 61 61 66 65 55 53 54 38 40 35 47 54 50 50 44 66 77 84 77 60 54
24 22 20 23 19 25 37 39 38 41 39 42 41 44 45 48 48 54 59 55 56 57 55 57 59 63 59 57 58 62 60 52 35 32 21 22 8 32 43 46 43 39 36
23 20 19 18 22 27 33 35 40 45 45 38 44 43 43 43 46 53 56 60 60 56 62 62 60 59 60 57 58 60 67 69 68 53 39 31 23 19 5 8 16 40 37
27 25 24 23 27 34 40 41 38 42 45 45 49 53 58 47 46 55 59 65 70 74 73 64 66 66 64 50 51 55 54 55 54 69 78 79 67 58 30 22 21 25 26
23 24 22 25 27 27 39 43 41 45 42 45 44 46 35 50 53 58 64 77 78 76 76 71 71 70 66 63 45 50 53 60 64 60 50 71 85 83 86 84 67 55 52
21 16 20 20 25 29 35 48 50 52 49 46 42 36 35 48 57 64 65 64 67 67 64 54 54 53 51 54 49 42 40 43 49 46 44 45 52 53 55 58 64 77 84
18 20 30 35 29 29 38 46 50 46 43 46 44 43 44 45 48 47 55 65 76 76 69 57 49 42 42 40 38 33 31 35 38 43 23 24 27 26 25 22 22 26 37
Wind_Direction_500mb
209 237 219 231 261 270 261 261 243 245 255 274 288 286 283 278 263 269 272 275 277 281 285 286 291 286 289 280 281 282 281 280 276 272 271 273 275 276 273 271 266 259 256
215 235 227 218 209 225 231 250 263 245 259 270 258 266 265 279 274 282 279 277 283 284 284 276 269 268 266 269 278 280 281 278 275 272 268 268 269 270 271 269 267 262 256
214 245 243 239 237 226 226 231 233 240 241 238 249 244 252 271 272 278 277 282 276 281 286 277 276 290 282 250 271 277 276 279 277 273 271 270 269 270 270 267 265 263 256
230 234 243 241 248 239 236 246 235 247 253 261 265 263 261 262 275 270 270 270 284 285 285 287 289 274 247 258 270 273 272 271 274 272 271 271 271 273 268 264 264 259 253
245 243 244 236 237 245 235 241 245 241 250 250 248 252 261 272 264 269 266 269 264 268 285 285 278 275 273 244 267 266 267 266 267 270 271 271 273 276 272 267 260 260 250
258 256 251 243 236 253 253 245 247 241 245 245 253 258 249 255 259 270 280 282 278 283 276 278 286 290 267 252 269 266 264 262 263 262 264 266 269 272 267 263 264 264 259
265 263 258 260 245 249 261 250 254 250 244 238 248 256 265 278 282 282 287 284 292 290 284 280 287 287 250 239 258 266 270 265 258 257 258 263 268 267 264 261 264 264 265
274 266 266 265 260 263 268 255 244 250 254 249 251 265 273 282 269 281 272 277 284 292 296 285 274 301 288 268 266 264 267 268 257 252 252 253 258 261 260 259 257 260 262
287 277 273 264 275 256 267 270 262 252 263 269 266 261 271 258 279 291 277 282 290 288 290 292 283 281 282 276 262 267 259 262 263 254 247 246 249 254 254 259 257 254 258
232 249 273 257 258 245 244 280 296 322 289 288 288 285 272 271 285 291 286 280 284 288 293 293 291 281 274 270 272 264 249 261 266 258 247 246 246 246 248 252 257 256 256
278 270 276 277 271 269 262 272 307 276 283 278 283 277 277 279 277 278 281 284 291 287 298 295 294 277 271 271 271 262 266 265 261 257 250 249 246 244 245 244 245 252 256
252 248 251 254 257 261 271 273 273 279 284 284 282 284 280 281 283 283 279 282 285 295 291 289 293 294 275 278 271 257 260 268 260 250 253 253 243 253 243 241 245 249 255
215 243 263 266 277 278 279 279 290 302 299 300 298 296 292 293 291 292 294 296 292 290 285 289 281 286 285 281 275 264 257 258 245 249 253 252 244 238 235 237 241 249 254
282 295 294 296 292 297 293 296 299 297 293 298 297 300 306 305 307 310 310 311 307 301 298 296 290 284 277 290 271 268 253 264 256 255 253 245 239 237 234 236 243 249 256
280 332 303 309 315 310 308 302 297 293 291 298 301 297 293 297 297 293 294 307 307 304 298 299 296 290 293 275 284 300 286 247 265 248 251 244 239 237 232 234 240 247 258
248 296 308 308 307 311 307 304 312 313 314 301 300 300 301 298 296 296 301 301 303 304 299 301 300 291 284 282 288 292 274 267 249 246 245 247 245 240 236 237 242 250 257
287 292 299 300 308 307 303 310 310 309 297 301 301 298 299 305 306 296 293 292 292 302 303 298 309 310 305 297 288 289 278 249 253 250 247 238 243 239 239 239 245 250 259
313 326 328 331 335 325 332 311 317 318 318 321 324 325 317 306 308 301 300 297 294 292 301 303 308 305 304 309 309 309 302 274 247 245 227 224 229 225 241 248 252 257 257
340 347 348 357 350 353 301 320 329 331 330 338 338 327 313 315 310 303 303 302 298 295 288 289 293 297 297 309 304 294 298 293 284 271 253 250 245 267 244 239 261 267 268
344 345 349 354 358 326 324 338 347 350 352 345 338 337 339 330 329 339 333 318 313 310 306 304 301 301 305 293 301 321 298 295 292 280 277 272 268 257 255 262 265 266 270
2 13 4 11 1 321 342 351 356 358 3 2 353 341 337 335 342 334 335 334 328 324 316 311 304 302 299 292 287 293 298 299 288 322 263 250 320 257 261 265 265 265 267
7 21 7 355 335 338 345 354 356 354 355 346 339 339 342 338 327 324 334 332 330 325 322 314 314 309 306 299 299 302 299 299 297 283 296 269 287 260 242 313 265 258 258
16 21 2 4 350 350 356 351 343 343 344 347 344 344 342 347 342 335 323 315 313 311 309 303 299 301 302 317 302 296 299 298 298 284 286 286 284 283 269 265 246 238 234
15 24 355 354 356 353 340 340 351 353 350 337 337 329 348 346 339 321 320 314 314 316 317 312 299 292 283 289 298 290 292 297 298 293 285 282 273 275 274 274 267 272 280
353 19 359 351 356 5 340 346 354 354 356 352 350 357 353 338 327 325 330 333 332 333 327 320 311 305 292 275 269 283 284 290 298 305 304 298 281 286 285 281 276 272 269
344 22 31 29 19 350 349 358 355 0 6 13 20 21 8 352 352 354 349 349 346 342 339 336 333 322 318 303 266 257 293 286 295 304 319 301 298 289 311 330 292 275 270
Wind_Speed_850mb
31 34 31 27 28 22 24 20 21 26 24 29 24 22 21 26 34 34 31 36 37 42 40 36 31 30 36 41 39 37 38 40 39 41 39 38 37 35 32 30 31 29 27
30 41 36 44 46 42 33 32 29 23 32 25 21 30 32 35 31 31 30 42 43 46 45 44 49 43 35 44 44 40 38 38 38 38 38 39 39 37 36 34 32 32 30
34 41 43 37 39 41 28 38 33 34 42 41 42 31 31 32 35 33 43 50 43 49 55 55 49 57 49 46 45 41 38 35 35 33 32 33 35 35 36 35 33 34 33
42 47 49 36 31 29 36 37 43 46 37 30 29 30 37 30 36 40 45 37 48 46 51 50 55 48 34 51 47 42 37 33 31 29 26 25 27 31 34 34 33 32 32
44 51 42 39 35 40 38 38 38 36 41 39 43 40 35 48 48 50 56 49 53 51 59 57 61 48 55 51 50 44 38 33 30 28 25 22 21 21 24 27 30 32 30
48 41 40 42 38 43 44 42 44 42 47 42 40 42 40 41 46 51 58 58 62 58 67 77 70 67 53 37 37 38 36 35 33 28 25 22 19 16 17 20 22 25 29
39 43 45 41 45 47 46 38 46 51 55 48 47 52 52 49 48 53 55 57 55 52 55 60 58 50 42 27 33 40 34 38 37 32 28 25 20 16 16 16 18 19 22
44 41 40 42 40 44 49 54 55 52 52 39 44 39 38 46 46 50 56 57 55 55 50 56 52 41 35 29 48 40 33 37 41 37 33 27 23 18 15 17 17 18 21
35 35 33 38 42 42 48 49 59 58 53 47 45 37 22 21 30 37 48 61 69 57 54 53 54 41 29 34 48 51 44 45 40 44 37 33 28 23 19 20 20 19 20
31 33 39 53 46 56 42 60 43 67 47 52 44 38 47 49 51 52 59 50 59 70 65 60 65 60 53 49 49 44 44 48 45 51 45 40 34 28 25 21 22 20 20
27 32 35 31 35 36 38 49 41 48 48 45 56 55 60 62 60 63 60 58 60 54 67 79 66 65 60 63 61 66 55 67 58 56 50 46 42 35 31 26 24 21 19
15 21 17 16 25 30 31 34 37 42 44 48 47 50 55 64 63 65 67 72 78 77 57 64 75 62 62 64 70 74 77 73 66 63 55 62 51 43 41 33 28 25 23
10 5 13 15 19 24 27 33 31 27 21 29 33 42 49 53 58 60 64 71 70 73 73 75 62 62 69 67 75 80 87 76 72 69 65 73 68 60 51 42 36 31 29
13 19 15 14 18 24 30 32 28 29 34 39 41 38 38 41 41 48 55 60 69 65 69 67 66 67 71 70 69 82 67 73 75 85 81 83 77 66 57 48 42 37 36
5 11 12 17 20 26 31 33 30 31 38 39 43 43 45 50 50 48 47 48 58 63 67 59 61 61 47 75 77 70 74 76 82 85 90 87 80 73 66 55 50 44 42
8 12 17 22 26 29 36 43 41 40 40 38 41 50 52 51 53 53 49 50 46 56 70 62 66 67 60 68 72 50 55 69 82 63 72 83 80 76 69 60 54 50 50
16 20 24 29 31 30 37 41 39 32 40 47 45 47 52 53 52 54 56 54 53 47 62 73 56 58 63 64 69 62 40 39 37 63 74 74 70 70 69 65 57 51 57
19 20 22 25 25 24 28 34 36 38 38 38 40 39 41 46 51 53 50 50 55 55 53 71 62 57 51 50 54 53 53 55 60 48 58 60 72 64 64 63 64 64 60
23 24 24 25 24 23 27 33 41 42 38 35 37 39 48 53 52 59 61 60 64 65 67 74 85 73 64 55 64 73 69 59 56 69 70 66 63 55 61 60 68 74 74
19 18 21 19 22 25 30 39 40 42 33 28 33 40 43 44 50 48 51 55 59 60 61 61 66 65 55 53 54 38 40 35 47 54 50 50 44 66 77 84 77 60 54
24 22 20 23 19 25 37 39 38 41 39 42 41 44 45 48 48 54 59 55 56 57 55 57 59 63 59 57 58 62 60 52 35 32 21 22 8 32 43 46 43 39 36
23 20 19 18 22 27 33 35 40 45 45 38 44 43 43 43 46 53 56 60 60 56 62 62 60 59 60 57 58 60 67 69 68 53 39 31 23 19 5 8 16 40 37
27 25 24 23 27 34 40 41 38 42 45 45 49 53 58 47 46 55 59 65 70 74 73 64 66 66 64 50 51 55 54 55 54 69 78 79 67 58 30 22 21 25 26
23 24 22 25 27 27 39 43 41 45 42 45 44 46 35 50 53 58 64 77 78 76 76 71 71 70 66 63 45 50 53 60 64 60 50 71 85 83 86 84 67 55 52
21 16 20 20 25 29 35 48 50 52 49 46 42 36 35 48 57 64 65 64 67 67 64 54 54 53 51 54 49 42 40 43 49 46 44 45 52 53 55 58 64 77 84
18 20 30 35 29 29 38 46 50 46 43 46 44 43 44 45 48 47 55 65 76 76 69 57 49 42 42 40 38 33 31 35 38 43 23 24 27 26 25 22 22 26 37
Wind_Direction_850mb
209 237 219 231 261 270 261 261 243 245 255 274 288 286 283 278 263 269 272 275 277 281 285 286 291 286 289 280 281 282 281 280 276 272 271 273 275 276 273 271 266 259 256
215 235 227 218 209 225 231 250 263 245 259 270 258 266 265 279 274 282 279 277 283 284 284 276 269 268 266 269 278 280 281 278 275 272 268 268 269 270 271 269 267 262 256
214 245 243 239 237 226 226 231 233 240 241 238 249 244 252 271 272 278 277 282 276 281 286 277 276 290 282 250 271 277 276 279 277 273 271 270 269 270 270 267 265 263 256
230 234 243 241 248 239 236 246 235 247 253 261 265 263 261 262 275 270 270 270 284 285 285 287 289 274 247 258 270 273 272 271 274 272 271 271 271 273 268 264 264 259 253
245 243 244 236 237 245 235 241 245 241 250 250 248 252 261 272 264 269 266 269 264 268 285 285 278 275 273 244 267 266 267 266 267 270 271 271 273 276 272 267 260 260 250
258 256 251 243 236 253 253 245 247 241 245 245 253 258 249 255 259 270 280 282 278 283 276 278 286 290 267 252 269 266 264 262 263 262 264 266 269 272 267 263 264 264 259
265 263 258 260 245 249 261 250 254 250 244 238 248 256 265 278 282 282 287 284 292 290 284 280 287 287 250 239 258 266 270 265 258 257 258 263 268 267 264 261 264 264 265
274 266 266 265 260 263 268 255 244 250 254 249 251 265 273 282 269 281 272 277 284 292 296 285 274 301 288 268 266 264 267 268 257 252 252 253 258 261 260 259 257 260 262
287 277 273 264 275 256 267 270 262 252 263 269 266 261 271 258 279 291 277 282 290 288 290 292 283 281 282 276 262 267 259 262 263 254 247 246 249 254 254 259 257 254 258
232 249 273 257 258 245 244 280 296 322 289 288 288 285 272 271 285 291 286 280 284 288 293 293 291 281 274 270 272 264 249 261 266 258 247 246 246 246 248 252 257 256 256
278 270 276 277 271 269 262 272 307 276 283 278 283 277 277 279 277 278 281 284 291 287 298 295 294 277 271 271 271 262 266 265 261 257 250 249 246 244 245 244 245 252 256
252 248 251 254 257 261 271 273 273 279 284 284 282 284 280 281 283 283 279 282 285 295 291 289 293 294 275 278 271 257 260 268 260 250 253 253 243 253 243 241 245 249 255
215 243 263 266 277 278 279 279 290 302 299 300 298 296 292 293 291 292 294 296 292 290 285 289 281 286 285 281 275 264 257 258 245 249 253 252 244 238 235 237 241 249 254
282 295 294 296 292 297 293 296 299 297 293 298 297 300 306 305 307 310 310 311 307 301 298 296 290 284 277 290 271 268 253 264 256 255 253 245 239 237 234 236 243 249 256
280 332 303 309 315 310 308 302 297 293 291 298 301 297 293 297 297 293 294 307 307 304 298 299 296 290 293 275 284 300 286 247 265 248 251 244 239 237 232 234 240 247 258
248 296 308 308 307 311 307 304 312 313 314 301 300 300 301 298 296 296 301 301 303 304 299 301 300 291 284 282 288 292 274 267 249 246 245 247 245 240 236 237 242 250 257
287 292 299 300 308 307 303 310 310 309 297 301 301 298 299 305 306 296 293 292 292 302 303 298 309 310 305 297 288 289 278 249 253 250 247 238 243 239 239 239 245 250 259
313 326 328 331 335 325 332 311 317 318 318 321 324 325 317 306 308 301 300 297 294 292 301 303 308 305 304 309 309 309 302 274 247 245 227 224 229 225 241 248 252 257 257
340 347 348 357 350 353 301 320 329 331 330 338 338 327 313 315 310 303 303 302 298 295 288 289 293 297 297 309 304 294 298 293 284 271 253 250 245 267 244 239 261 267 268
344 345 349 354 358 326 324 338 347 350 352 345 338 337 339 330 329 339 333 318 313 310 306 304 301 301 305 293 301 321 298 295 292 280 277 272 268 257 255 262 265 266 270
2 13 4 11 1 321 342 351 356 358 3 2 353 341 337 335 342 334 335 334 328 324 316 311 304 302 299 292 287 293 298 299 288 322 263 250 320 257 261 265 265 265 267
7 21 7 355 335 338 345 354 356 354 355 346 339 339 342 338 327 324 334 332 330 325 322 314 314 309 306 299 299 302 299 299 297 283 296 269 287 260 242 313 265 258 258
16 21 2 4 350 350 356 351 343 343 344 347 344 344 342 347 342 335 323 315 313 311 309 303 299 301 302 317 302 296 299 298 298 284 286 286 284 283 269 265 246 238 234
15 24 355 354 356 353 340 340 351 353 350 337 337 329 348 346 339 321 320 314 314 316 317 312 299 292 283 289 298 290 292 297 298 293 285 282 273 275 274 274 267 272 280
353 19 359 351 356 5 340 346 354 354 356 352 350 357 353 338 327 325 330 333 332 333 327 320 311 305 292 275 269 283 284 290 298 305 304 298 281 286 285 281 276 272 269
344 22 31 29 19 350 349 358 355 0 6 13 20 21 8 352 352 354 349 349 346 342 339 336 333 322 318 303 266 257 293 286 295 304 319 301 298 289 311 330 292 275 270